Location: ????? ???????
(25.7275°N, 32.5929°E)
Time: 12:00:05
(UTC+00:00)

Cosmos 1939 Rocket - Pass Details

Date: 02 March 2021
Orbit: 534 x 582 km, 97.4° (Epoch: 15 April)

Event Time Altitude Azimuth Distance (km) Brightness Sun altitude
Rises 16:18:53 0° 183° (S) 2,680 6.4 -6.9°
Reaches altitude 10° 16:21:06 10° 191° (SSW) 1,787 5.6 -7.4°
Maximum altitude 16:24:42 39° 261° (W) 816 4.5 -8.2°
Drops below altitude 10° 16:28:19 10° 331° (NNW) 1,786 5.8 -9.0°
Sets 16:30:32 0° 339° (NNW) 2,679 6.6 -9.5°
